TimeEST,TemperatureF,Dew PointF,Humidity,Sea Level PressureIn,VisibilityMPH,Wind Direction,Wind SpeedMPH,Gust SpeedMPH,PrecipitationIn,Events,Conditions,WindDirDegrees,DateUTC
12:53 AM,16.0,12.9,88,30.30,10.0,West,8.1,-,N/A,,Clear,270,2012-12-13 05:53:00
1:53 AM,16.0,12.9,88,30.32,10.0,WNW,4.6,-,N/A,,Clear,290,2012-12-13 06:53:00
2:53 AM,17.1,15.1,92,30.33,10.0,NW,3.5,-,N/A,,Mostly Cloudy,310,2012-12-13 07:53:00
3:53 AM,17.1,14.0,88,30.34,10.0,Calm,Calm,-,N/A,,Overcast,0,2012-12-13 08:53:00
4:53 AM,15.1,12.9,91,30.35,10.0,Variable,4.6,-,N/A,,Overcast,0,2012-12-13 09:53:00
5:53 AM,17.1,14.0,88,30.37,10.0,WSW,5.8,-,N/A,,Overcast,240,2012-12-13 10:53:00
6:43 AM,15.8,12.2,86,30.31,10.0,SW,3.5,-,N/A,,Scattered Clouds,230,2012-12-13 11:43:00
6:53 AM,14.0,10.9,88,30.37,10.0,WSW,4.6,-,N/A,,Clear,240,2012-12-13 11:53:00
7:37 AM,15.8,12.2,86,30.33,10.0,WNW,8.1,-,N/A,,Mostly Cloudy,290,2012-12-13 12:37:00
7:53 AM,16.0,12.9,88,30.39,10.0,WNW,5.8,-,N/A,,Overcast,290,2012-12-13 12:53:00
8:11 AM,15.8,12.2,86,30.34,10.0,WNW,6.9,-,N/A,,Scattered Clouds,290,2012-12-13 13:11:00
8:53 AM,19.0,15.1,85,30.39,10.0,WNW,5.8,-,N/A,,Clear,300,2012-12-13 13:53:00
9:53 AM,19.9,17.1,89,30.36,10.0,NW,3.5,-,N/A,,Clear,310,2012-12-13 14:53:00
10:53 AM,19.9,17.1,89,30.35,10.0,SW,5.8,-,N/A,,Clear,220,2012-12-13 15:53:00
11:53 AM,21.0,18.0,88,30.34,10.0,South,5.8,-,N/A,,Clear,180,2012-12-13 16:53:00
12:53 PM,23.0,17.1,78,30.32,10.0,SW,6.9,-,N/A,,Partly Cloudy,230,2012-12-13 17:53:00
1:53 PM,24.1,18.0,77,30.30,10.0,Calm,Calm,-,N/A,,Clear,0,2012-12-13 18:53:00
2:34 PM,21.2,17.6,86,30.25,10.0,SSE,3.5,-,N/A,,Mostly Cloudy,150,2012-12-13 19:34:00
2:46 PM,21.2,17.6,86,30.25,10.0,SE,3.5,-,N/A,,Scattered Clouds,140,2012-12-13 19:46:00
2:53 PM,21.0,17.1,85,30.30,10.0,SSE,3.5,-,N/A,,Partly Cloudy,150,2012-12-13 19:53:00
3:53 PM,23.0,18.0,81,30.29,10.0,South,6.9,-,N/A,,Clear,190,2012-12-13 20:53:00
4:53 PM,21.9,18.0,85,30.28,10.0,South,4.6,-,N/A,,Mostly Cloudy,190,2012-12-13 21:53:00
7:53 PM,23.0,19.4,86,30.17,10.0,South,6.9,-,N/A,,Overcast,190,2012-12-14 00:53:00
8:53 PM,23.0,19.0,85,30.19,10.0,South,8.1,-,N/A,,Overcast,190,2012-12-14 01:53:00
9:53 PM,23.0,19.9,88,30.17,10.0,South,6.9,-,N/A,,Overcast,180,2012-12-14 02:53:00
10:53 PM,23.0,19.9,88,30.16,10.0,South,6.9,-,N/A,,Overcast,170,2012-12-14 03:53:00
11:53 PM,23.0,19.9,88,30.13,3.0,SSE,6.9,-,0.00,Snow,Light Snow,160,2012-12-14 04:53:00